Mesa, AZ

3:10 PM MST on October 01, 2016 (GMT -0700)
Phoenix-Mesa Gateway Airport

Weather History for KIWA - April, 2014

Change the Weather History Date:

Tuesday, April 29, 2014

  Actual Average Record
Temperature  
Mean Temperature 74 °F -  
Max Temperature 84 °F 85 °F 98 °F (2013)
Min Temperature 64 °F 58 °F 51 °F (1999)
Cooling Degree Days 9    
Growing Degree Days 24 (Base 50)    
Moisture  
Dew Point 7 °F    
Average Humidity 8    
Maximum Humidity 17    
Minimum Humidity 5    
Precipitation  
Precipitation 0.00 in - - ()
Sea Level Pressure  
Sea Level Pressure 30.01 in    
Wind  
Wind Speed 13 mph (NNE)    
Max Wind Speed 24 mph    
Max Gust Speed 34 mph    
Visibility 12 miles    
Events      
Averages and records for this station are not official NWS values.
T = Trace of Precipitation, MM = Missing Value Source: NWS Daily Summary

Daily Weather History Graph

Daily Weather History Graph

Search for Another Location

Airport or City:

Trip Planner

Search our weather history database for the weather conditions in past years. The results will help you decide how hot, cold, wet, or windy it might be!

Date:

Astronomy

Apr. 29, 2014 Rise Set
Actual Time 5:40 AM MST 7:07 PM MST
Civil Twilight 5:14 AM MST 7:34 PM MST
Nautical Twilight 4:42 AM MST 8:05 PM MST
Astronomical Twilight 4:09 AM MST 8:38 PM MST
Moon 6:00 AM MST (4/29) 7:50 PM MST (4/29)
Length of Visible Light 14h 19m
Length of Day
13h 27m
New Moon, 0% of the Moon is Illuminated
Apr 29
New Moon
May 6
First Quarter
May 14
Full
May 21
Last Quarter
May 28
New

Hourly Weather History & Observations

Time (MST) Temp. Dew Point Humidity Pressure Visibility Wind Dir Wind Speed Gust Speed Precip Events Conditions
12:15 AM 71.6 °F 24.8 °F 17% 29.94 in 10.0 mi East 6.9 mph - N/A   Clear
12:35 AM 71.6 °F 21.2 °F 15% 29.95 in 10.0 mi NE 8.1 mph - N/A   Clear
12:55 AM 71.6 °F 14.0 °F 11% 29.95 in 10.0 mi NNE 15.0 mph 19.6 mph N/A   Clear
1:15 AM 71.6 °F 12.2 °F 10% 29.96 in 10.0 mi NNE 15.0 mph - N/A   Clear
1:35 AM 71.6 °F 12.2 °F 10% 29.96 in 10.0 mi NNE 15.0 mph 18.4 mph N/A   Clear
1:55 AM 71.6 °F 12.2 °F 10% 29.96 in 10.0 mi NNE 8.1 mph - N/A   Clear
2:15 AM 69.8 °F 12.2 °F 11% 29.96 in 10.0 mi NNE 10.4 mph - N/A   Clear
2:35 AM 69.8 °F 12.2 °F 11% 29.97 in 10.0 mi North 9.2 mph - N/A   Clear
2:55 AM 68.0 °F 10.4 °F 11% 29.97 in 10.0 mi North 11.5 mph - N/A   Clear
3:15 AM 69.8 °F 10.4 °F 10% 29.99 in 10.0 mi NNE 12.7 mph - N/A   Clear
3:35 AM 69.8 °F 10.4 °F 10% 29.99 in 10.0 mi NNE 18.4 mph 21.9 mph N/A   Clear
3:55 AM 69.8 °F 10.4 °F 10% 29.99 in 10.0 mi NNE 17.3 mph 21.9 mph N/A   Clear
4:15 AM 68.0 °F 8.6 °F 10% 29.99 in 7.0 mi NNE 18.4 mph - N/A   Clear
4:35 AM 68.0 °F 8.6 °F 10% 30.00 in 10.0 mi North 20.7 mph - N/A   Clear
4:47 AM 68.0 °F 8.6 °F 10% 30.00 in 20.0 mi NE 18.4 mph 26.5 mph N/A   Clear
4:55 AM 68.0 °F 8.6 °F 10% 30.00 in 5.0 mi NNE 24.2 mph 31.1 mph N/A   Haze
5:15 AM 66.2 °F 8.6 °F 11% 30.01 in 10.0 mi NNE 20.7 mph 26.5 mph N/A   Clear
5:35 AM 64.4 °F 8.6 °F 11% 30.02 in 10.0 mi NNE 21.9 mph 26.5 mph N/A   Clear
5:47 AM 66.2 °F 8.6 °F 11% 30.02 in 35.0 mi NNE 20.7 mph 28.8 mph N/A   Clear
6:50 AM 66.2 °F 8.6 °F 11% 30.05 in 35.0 mi NNE 17.3 mph 33.4 mph N/A   Clear
7:47 AM 68.0 °F 6.8 °F 9% 30.07 in 35.0 mi NNE 23.0 mph 33.4 mph N/A   Clear
8:47 AM 71.6 °F 8.6 °F 9% 30.09 in 35.0 mi NE 24.2 mph 33.4 mph N/A   Clear
9:47 AM 73.4 °F 5.0 °F 7% 30.09 in 35.0 mi NNE 17.3 mph 23.0 mph N/A   Clear
10:52 AM 75.2 °F 3.2 °F 6% 30.08 in 35.0 mi NNE 17.3 mph 34.5 mph N/A   Clear
11:47 AM 78.8 °F 6.8 °F 6% 30.08 in 35.0 mi NE 17.3 mph 27.6 mph N/A   Clear
12:49 PM 78.8 °F 5.0 °F 6% 30.05 in 35.0 mi North 10.4 mph 19.6 mph N/A   Clear
1:47 PM 80.6 °F 6.8 °F 6% 30.03 in 35.0 mi North 12.7 mph 25.3 mph N/A   Clear
2:54 PM 82.4 °F 3.2 °F 5% 29.99 in 35.0 mi North 11.5 mph 25.3 mph N/A   Clear
3:47 PM 84.2 °F 3.2 °F 5% 29.97 in 35.0 mi North 15.0 mph 24.2 mph N/A   Clear
4:47 PM 84.2 °F 3.2 °F 5% 29.96 in 35.0 mi North 13.8 mph 23.0 mph N/A   Clear
5:47 PM 82.4 °F 3.2 °F 5% 29.94 in 45.0 mi NNE 13.8 mph 25.3 mph N/A   Clear
6:47 PM 80.6 °F 5.0 °F 6% 29.96 in 35.0 mi North 13.8 mph - N/A   Clear
7:48 PM 78.8 °F 6.8 °F 6% 29.99 in 20.0 mi North 13.8 mph 23.0 mph N/A   Clear
7:55 PM 78.8 °F 8.6 °F 7% 29.99 in 10.0 mi North 13.8 mph - N/A   Clear
8:15 PM 75.2 °F 6.8 °F 7% 30.00 in 10.0 mi North 15.0 mph - N/A   Clear
8:35 PM 73.4 °F 5.0 °F 7% 30.01 in 10.0 mi North 12.7 mph - N/A   Clear
8:52 PM 75.2 °F 3.2 °F 6% 30.02 in 20.0 mi NNE 13.8 mph 23.0 mph N/A   Clear
8:55 PM 73.4 °F 3.2 °F 6% 30.02 in 10.0 mi NNE 19.6 mph - N/A   Clear
9:15 PM 71.6 °F 3.2 °F 7% 30.03 in 10.0 mi NNE 15.0 mph - N/A   Clear
9:35 PM 71.6 °F 1.4 °F 6% 30.04 in 10.0 mi NE 12.7 mph - N/A   Clear
9:47 PM 73.4 °F 1.4 °F 6% 30.04 in 20.0 mi NNE 9.2 mph - N/A   Clear
9:55 PM 71.6 °F 3.2 °F 7% 30.04 in 10.0 mi NE 11.5 mph - N/A   Clear
10:15 PM 71.6 °F 3.2 °F 7% 30.04 in 10.0 mi NE 9.2 mph - N/A   Clear
10:35 PM 69.8 °F 3.2 °F 7% 30.05 in 10.0 mi NNE 6.9 mph - N/A   Clear
10:55 PM 71.6 °F 3.2 °F 7% 30.05 in 20.0 mi NNE 11.5 mph - N/A   Clear
11:15 PM 69.8 °F 3.2 °F 7% 30.05 in 10.0 mi NNE 11.5 mph - N/A   Clear
11:35 PM 69.8 °F 5.0 °F 8% 30.05 in 10.0 mi NE 10.4 mph - N/A   Clear
11:47 PM 69.8 °F 3.2 °F 7% 30.05 in 20.0 mi NNE 10.4 mph - N/A   Clear
11:55 PM 68.0 °F 3.2 °F 8% 30.05 in 10.0 mi NE 10.4 mph - N/A   Clear